Flag for Poland Weather past 2 weeks in Gdynia, Poland

Now
84 °F

Passing clouds.


Feels Like: 84 °F
Forecast: 57 / 64 °F
Wind: 5 mph from West

Location: Gdansk-Rebiechowo

Current Time: Sep 1, 2015 at 12:58:16 PM

Latest Report: Sep 1, 2015 at 12:30 PM


Visibility: N/A

Pressure: 29.68 "Hg

Humidity: 43%

Dew point: 59 °F

Location of GdyniaLocation

Historic Weather in Gdynia — Graph

°F

Gdynia temperature yesterday

Maximum temperature yesterday: 73 °F (at 11:30 AM)
Minimum temperature yesterday: 61 °F (at 12:00 AM)
Average temperature yesterday: 67 °F

Past Weeks' High & Low Weather Summary

 TemperatureHumidityPressure
High82 °F (Aug 27, 2:30 PM)100% (Aug 21, 4:00 AM)30.39 "Hg (Aug 21, 4:00 AM)
Low46 °F (Aug 20, 6:00 AM)26% (Aug 27, 3:30 PM)29.65 "Hg (Sep 1, 10:00 AM)
Average65 °F65%30.09 "Hg
* Reported Aug 17 11:00 AM — Sep 1 11:30 AM, Gdynia, Weather by CustomWeather, © 2015

Note: Actual official high and low records may vary slightly from our data, if they occured in-between our weather recording intervals... More about our weather records

Advertising

Gdynia weather history for previous 24 hours

 ConditionsComfort  
Time TempWeatherWind HumidityBarometerVisibility
11:30 AM
Tue, Sep 1
82 °FSunny.1 mph51%29.68 "Hg10 mi
11:00 AM81 °FPassing clouds.5 mph54%29.68 "HgN/A
10:30 AM81 °FPassing clouds.6 mph51%29.65 "HgN/A
10:00 AM77 °FPassing clouds.6 mph57%29.65 "HgN/A
9:30 AM75 °FSunny.3 mph61%29.68 "Hg10 mi
9:00 AM73 °FPassing clouds.5 mph65%29.68 "HgN/A
8:30 AM73 °FPassing clouds.6 mph61%29.68 "HgN/A
8:00 AM72 °FSunny.5 mph69%29.68 "Hg10 mi
7:30 AM70 °FSunny.2 mph73%29.68 "Hg10 mi
7:00 AM66 °FSunny.2 mph78%29.68 "Hg10 mi
5:30 AM64 °FClear.2 mph83%29.71 "Hg10 mi
5:00 AM66 °FClear.No wind73%29.71 "Hg10 mi
4:30 AM70 °FClear.1 mph69%29.71 "Hg10 mi
4:00 AM72 °FPassing clouds.3 mph65%29.71 "HgN/A
3:30 AM72 °FPassing clouds.6 mph61%29.74 "HgN/A
3:00 AM72 °FPassing clouds.5 mph65%29.74 "HgN/A
2:30 AM73 °FPassing clouds.6 mph57%29.74 "HgN/A
2:00 AM72 °FPassing clouds.5 mph65%29.77 "HgN/A
1:30 AM68 °FPassing clouds.3 mph73%29.80 "HgN/A
1:00 AM70 °FClear.6 mph69%29.80 "Hg10 mi
11:00 PM
Mon, Aug 31
66 °FClear.2 mph78%29.83 "Hg10 mi
10:30 PM66 °FClear.5 mph78%29.86 "Hg10 mi
10:00 PM66 °FClear.3 mph78%29.86 "Hg10 mi
9:30 PM66 °FClear.6 mph78%29.89 "Hg10 mi
9:00 PM66 °FClear.6 mph78%29.89 "Hg10 mi
8:30 PM68 °FPassing clouds.6 mph73%29.89 "HgN/A
8:00 PM68 °FSunny.7 mph73%29.89 "Hg10 mi
7:30 PM68 °FSunny.7 mph73%29.89 "Hg10 mi
7:00 PM70 °FPassing clouds.9 mph69%29.92 "HgN/A
6:30 PM72 °FSunny.8 mph65%29.92 "Hg10 mi
6:00 PM72 °FPassing clouds.10 mph61%29.92 "HgN/A
5:30 PM72 °FSunny.10 mph61%29.95 "Hg10 mi
5:00 PM72 °FSunny.8 mph61%29.95 "Hg10 mi
4:30 PM72 °FSunny.9 mph61%29.95 "Hg10 mi
4:00 PM73 °FPassing clouds.9 mph53%29.98 "HgN/A
3:30 PM73 °FPassing clouds.9 mph57%29.98 "HgN/A
3:00 PM72 °FPassing clouds.8 mph65%29.98 "HgN/A
2:30 PM73 °FPassing clouds.7 mph57%30.01 "HgN/A
2:00 PM72 °FPassing clouds.7 mph65%30.01 "HgN/A
1:30 PM72 °FPassing clouds.8 mph61%30.01 "HgN/A
1:00 PM73 °FPassing clouds.8 mph57%30.01 "HgN/A
12:30 PM73 °FPassing clouds.7 mph57%30.01 "HgN/A
12:00 PM73 °FPassing clouds.6 mph53%30.01 "HgN/A
Weather by CustomWeather, © 2015

See weather overviewHow to use our weather pages